Regional Weather Roundup
Issued by NWS

Home | Current Version | Previous Version | Graphics & Text | Print | Product List | Glossary On
Versions: 1 2 3 4 5 6 7 8 9 10 11 12 13 14 15 16 17 18 19 20 21 22 23 24 25 26 27 28 29 30 31 32 33 34 35 36 37 38 39 40 41 42 43 44 45 46 47 48 49 50
000
ASUS43 KDTX 161510
RWRMI
MICHIGAN HOURLY REGIONAL WEATHER ROUNDUP
NATIONAL WEATHER SERVICE DETROIT/PONTIAC MI
ISSUED BY NATIONAL WEATHER SERVICE GRAND RAPIDS MI
1100 AM EDT WED AUG 16 2017

NOTE: "FAIR" INDICATES FEW OR NO CLOUDS BELOW 12,000 FEET WITH NO
SIGNIFICANT WEATHER AND/OR OBSTRUCTION TO VISIBILITY.

MIZ047>049-052>055-059>063-066>070-074>076-081>083-161600-
SOUTHEAST LOWER MICHIGAN

CITY           SKY/WX    TMP DP  RH WIND       PRES   REMARKS
ADRIAN         MOSUNNY   76  66  71 SE7       30.08F
ALMA           CLOUDY    71  58  64 E7        30.08F
ANN ARBOR      SUNNY     77  55  46 E8        30.08F
BAD AXE        SUNNY     74  59  60 CALM      30.11S
DETROIT CITY   SUNNY     74  57  55 SE9       30.09S
DETROIT        MOSUNNY   77  56  48 SE8       30.09S
FLINT          MOSUNNY   75  58  55 E8        30.09S
GROSSE ILE     MOSUNNY   74  55  50 SE3       30.08S
HILLSDALE      PTSUNNY   77  63  61 SE9       30.07F
HOWELL         CLOUDY    75  56  51 SE9       30.09S

CITY           SKY/WX    TMP DP  RH WIND       PRES   REMARKS
JACKSON          N/A    N/A N/A N/A MISG      30.08S
LANSING        SUNNY     76  63  64 SE10      30.07F
MASON          SUNNY     75  64  69 S7        30.08S
MONROE         SUNNY     76  62  60 E10       30.08S
MT. CLEMENS    MOSUNNY   72  63  72 E5        30.09R
PONTIAC        PTSUNNY   73  56  54 SE9       30.08S
PORT HOPE        N/A     70  64  81 E8        30.10R
PORT HURON     SUNNY     75  61  60 E5        30.10S
TRI CITIES     SUNNY     74  60  61 E9        30.09F
YPSILANTI      MOSUNNY   78  55  44 E9        30.09S
$$
MIZ043>046-050>051-056>058-064>065-071>073-077>080-161600-
SOUTHWEST LOWER MICHIGAN

CITY           SKY/WX    TMP DP  RH WIND       PRES   REMARKS
BATTLE CREEK   SUNNY     78  67  68 S6        30.06S
BENTON HARBOR  SUNNY     82  64  54 E5        30.02S
BIG RAPIDS     MOSUNNY   73  62  70 S9        30.06S
COLDWATER      SUNNY     77  66  67 SE8       30.06S
HOLLAND        SUNNY     77  66  68 VRB3      30.04S
GRAND RAPIDS   MOSUNNY   77  66  68 SW7       30.05S
KALAMAZOO      SUNNY     78  65  63 VRB5      30.05S
MARSHALL       SUNNY     77  65  66 S5        30.06S
MOUNT PLEASANT PTSUNNY   74  58  55 SE7       30.08S
MUSKEGON       PTSUNNY   78  62  57 VRB5      30.04S
STURGIS        SUNNY     78  69  73 S5        30.04F
$$
MIZ016>042-161600-
NORTHERN LOWER MICHIGAN

CITY           SKY/WX    TMP DP  RH WIND       PRES   REMARKS
ALPENA         CLOUDY    69  61  75 E9        30.13R
BEAVER ISLAND  PTSUNNY   68  62  79 E9        30.09S
BELLAIRE       MOSUNNY   71  59  64 SE5       30.08R
CADILLAC       PTSUNNY   73  57  56 SE9       30.08S
CHARLEVOIX     CLOUDY    69  62  79 E8        30.11R
GAYLORD        CLOUDY    65  58  78 SE7       30.11S
HOUGHTON LAKE  MOSUNNY   71  60  68 SE7       30.10S
OSCODA         CLOUDY    69  64  82 E7        30.11R
PELLSTON       PTSUNNY   69  60  73 SE12      30.11S
TRAVERSE CITY  PTSUNNY   74  60  61 SE5       30.05S
LUDINGTON      SUNNY     71  62  72 CALM      30.03F
$$
MIZ007>008-015-161600-
EASTERN UPPER MICHIGAN

CITY           SKY/WX    TMP DP  RH WIND       PRES   REMARKS
KINROSS        SUNNY     67  57  70 SE10      30.13S
MACKINAC ISLAN PTSUNNY   67  62  83 E12       30.11R
NEWBERRY       PTSUNNY   65  64  97 E7        30.10S
S. S. MARIE    MOSUNNY   66  55  67 VRB5      30.12S
$$
MIZ004>006-011>014-085-161600-
CENTRAL UPPER MICHIGAN

CITY           SKY/WX    TMP DP  RH WIND       PRES   REMARKS
MANISTIQUE     CLOUDY    67  61  81 SE3       30.08F
ESCANABA       MOSUNNY   65  60  84 E6        30.07F
MENOMINEE      CLOUDY    65  61  87 E8        30.07S
SAWYER-GWINN   MOSUNNY   57  57 100 CALM      30.09F
$$
MIZ001>003-009>011-084-161600-
WESTERN UPPER MICHIGAN

CITY           SKY/WX    TMP DP  RH WIND       PRES   REMARKS
IRON MOUNTAIN  CLOUDY    61  55  81 CALM      30.07F
HOUGHTON       SUNNY     63  56  78 E8        30.05F
COPPER HARBOR    N/A     63  56  78 CALM      30.05F
IRONWOOD       CLOUDY    65  60  84 S9        30.03S
$$

ABBREVIATIONS USED IN REMARKS
   TC - TEMPERATURE IN CELSIUS
  WCI - WIND CHILL INDEX
   HX - HEAT INDEX
  VSB - VISIBILITY





USA.gov is the U.S. government's official web portal to all federal, state and local government web resources and services.